Chadstone Weather > Observations for 02/09/20

Select Day:



Observations
Time Temp Hum DP Wind Gust Dir Rain >9am Press
C % C kph kph mm hPa
00:00 12.3 64 5.7 11.5 25.6 N 0.0 1020.3
00:10 12.4 64 5.8 12.4 24.5 NNE 0.0 1020.1
00:20 12.4 64 5.8 11.6 27.0 N 0.0 1019.8
00:30 12.5 64 5.9 12.7 27.0 NNE 0.0 1019.7
00:40 12.5 63 5.7 12.0 22.0 NNE 0.0 1019.5
00:50 12.5 63 5.7 12.7 34.2 N 0.0 1019.3
01:00 12.5 63 5.7 12.1 29.5 NE 0.0 1019.3
01:10 12.7 63 5.8 13.4 33.1 N 0.0 1019.2
01:20 12.8 63 5.9 13.3 29.5 N 0.0 1018.9
01:30 12.8 63 5.9 13.0 23.4 NNW 0.0 1018.6
01:40 12.9 62 5.8 14.8 28.1 N 0.0 1018.5
01:50 12.9 62 5.8 15.1 29.5 NNE 0.0 1018.3
02:00 13.0 62 5.9 17.1 39.2 NNE 0.0 1018.4
02:10 13.0 62 5.9 15.3 35.6 NE 0.0 1018.1
02:20 13.0 62 5.9 14.4 27.0 NNE 0.0 1018.1
02:30 13.0 63 6.1 15.2 31.7 N 0.0 1018.0
02:40 13.0 63 6.1 14.3 23.4 NE 0.0 1017.9
02:50 13.1 63 6.2 14.1 22.0 NE 0.0 1017.8
03:00 13.1 64 6.4 10.0 19.4 N 0.0 1017.7
03:10 13.1 64 6.4 15.3 24.5 E 0.0 1017.7
03:20 13.3 63 6.4 14.4 24.5 NNW 0.0 1017.7
03:30 13.3 63 6.4 12.1 25.6 N 0.0 1017.7
03:40 13.3 63 6.4 10.3 19.4 N 0.0 1017.5
03:50 13.3 63 6.4 10.3 18.4 NNW 0.0 1017.5
04:00 13.3 64 6.6 11.7 20.9 N 0.0 1017.3
04:10 13.3 64 6.6 10.6 22.0 N 0.0 1017.1
04:20 13.3 65 6.9 11.2 23.4 NNE 0.0 1016.8
04:30 13.5 65 7.1 13.1 23.4 N 0.0 1017.0
04:40 13.6 65 7.1 10.8 27.0 NNE 0.0 1017.2
04:50 13.6 65 7.1 9.0 22.0 N 0.0 1017.3
05:00 13.5 65 7.1 10.7 23.4 N 0.0 1016.8
05:10 13.6 65 7.1 12.0 24.5 NNE 0.0 1016.9
05:20 13.6 65 7.1 13.1 27.0 NE 0.0 1016.6
05:30 13.7 65 7.2 15.1 28.1 NNE 0.0 1016.6
05:40 13.9 65 7.4 16.8 33.1 NNW 0.0 1016.6
05:50 13.9 65 7.4 16.9 33.1 N 0.0 1016.6
06:00 13.9 64 7.2 14.2 29.5 N 0.0 1016.4
06:10 14.0 63 7.1 14.7 24.5 NNW 0.0 1016.3
06:20 14.1 62 6.9 20.8 36.7 NNE 0.0 1016.3
06:30 14.1 61 6.7 19.2 36.7 NNW 0.0 1016.2
06:40 14.2 60 6.6 18.3 34.2 NNW 0.0 1016.1
06:50 14.1 59 6.2 14.1 33.1 N 0.0 1016.5
07:00 14.2 58 6.1 18.0 31.7 N 0.0 1016.7
07:10 14.3 57 5.9 14.3 27.0 NNE 0.0 1016.9
07:20 14.3 57 5.9 13.7 27.0 NNE 0.0 1016.9
07:30 14.4 57 6.0 14.3 28.1 NNW 0.0 1017.3
07:40 14.5 57 6.1 14.7 29.5 NNW 0.0 1017.5
07:50 14.4 57 6.0 9.5 23.4 N 0.0 1017.5
08:00 14.5 57 6.1 11.1 20.9 N 0.0 1017.1
08:10 14.6 56 5.9 10.5 20.9 NNE 0.0 1016.9
08:20 14.6 56 5.9 11.4 22.0 NNE 0.0 1016.6
08:30 14.7 55 5.8 13.8 24.5 NNE 0.0 1016.7
08:40 14.9 55 5.9 17.0 33.1 NE 0.0 1016.0
08:50 15.1 53 5.6 18.2 31.7 N 0.0 1016.0
09:00 15.2 51 5.1 16.5 33.1 NNW 0.0 1015.8
09:10 15.3 50 4.9 21.5 39.2 N 0.0 1015.7
09:20 15.7 48 4.7 20.5 39.2 NNE 0.0 1015.4
09:30 15.9 48 4.9 17.3 40.3 N 0.0 1015.8
09:40 16.2 47 4.9 16.8 30.6 N 0.0 1015.5
09:50 16.6 47 5.2 15.6 33.1 NNW 0.0 1015.5
10:00 16.6 46 4.9 19.0 36.7 N 0.0 1016.0
10:10 16.8 45 4.8 18.1 50.0 NNE 0.0 1015.9
10:20 17.4 43 4.7 19.9 43.9 N 0.0 1015.5
10:30 17.6 42 4.5 22.6 61.2 N 0.0 1015.2
10:40 17.4 41 4.0 27.5 57.6 N 0.0 1015.0
10:50 17.4 42 4.4 25.6 43.9 N 0.0 1014.8
11:00 17.6 42 4.5 21.8 43.9 N 0.0 1014.7
11:10 17.8 43 5.1 22.2 45.4 NNE 0.0 1014.2
11:20 17.8 43 5.1 26.4 52.6 NNW 0.0 1014.2
11:30 17.7 43 5.0 25.4 43.9 N 0.0 1015.0
11:40 17.9 44 5.5 22.9 51.5 NNE 0.0 1014.7
11:50 18.1 45 6.0 28.5 57.6 N 0.0 1014.4
12:00 18.4 45 6.3 27.2 52.6 N 0.0 1013.9
12:10 18.5 45 6.4 26.6 49.0 N 0.0 1013.4
12:20 18.6 43 5.8 27.3 57.6 N 0.0 1013.5
12:30 19.1 44 6.6 25.8 50.0 NNE 0.0 1013.4
12:40 19.6 43 6.7 26.1 55.1 NNE 0.0 1013.3
12:50 20.1 41 6.4 24.9 55.1 N 0.0 1013.0
13:00 20.7 38 5.9 21.1 40.3 NNE 0.0 1013.0
13:10 21.2 35 5.1 22.5 45.4 NNE 0.0 1012.6
13:20 21.4 35 5.3 25.7 46.4 NNW 0.0 1012.4
13:30 21.2 35 5.1 26.9 54.0 N 0.0 1012.8
13:40 21.4 36 5.7 24.8 46.4 N 0.0 1013.0
13:50 21.6 35 5.5 25.2 42.8 NNW 0.0 1013.0
14:00 21.5 35 5.4 32.1 55.1 NNW 0.0 1012.6
14:10 21.3 36 5.6 27.9 61.2 NE 0.0 1012.9
14:20 21.5 37 6.2 25.2 45.4 N 0.0 1012.9
14:30 21.7 37 6.4 22.4 43.9 NNE 0.0 1012.8
14:40 21.9 35 5.8 24.2 54.0 NNE 0.0 1012.7
14:50 22.1 34 5.5 23.0 43.9 N 0.0 1012.8
15:00 22.2 34 5.6 23.0 47.9 N 0.0 1012.7
15:10 22.5 34 5.9 22.6 40.3 N 0.0 1012.9
15:20 22.5 33 5.4 25.8 56.2 NNW 0.0 1013.0
15:30 22.2 34 5.6 25.5 54.0 N 0.0 1013.2
15:40 21.7 37 6.4 23.6 47.9 NW 0.0 1013.6
15:50 21.4 39 6.9 15.1 43.9 NW 0.0 1013.8
16:00 21.2 41 7.4 19.4 35.6 NW 0.0 1013.7
16:10 21.0 42 7.6 18.4 33.1 NNW 0.0 1013.7
16:20 20.8 43 7.8 22.0 39.2 NW 0.0 1013.7
16:30 20.7 44 8.0 22.4 43.9 NNW 0.0 1013.8
16:40 20.7 45 8.4 21.6 51.5 NNW 0.0 1013.9
16:50 20.7 45 8.4 19.2 39.2 NW 0.0 1014.1
17:00 20.6 45 8.3 21.2 41.8 NNW 0.0 1014.1
17:10 20.5 46 8.5 17.8 41.8 NW 0.0 1014.1
17:20 20.4 47 8.7 17.9 33.1 N 0.0 1013.7
17:30 20.3 47 8.6 17.4 33.1 N 0.0 1013.6
17:40 20.3 47 8.6 16.4 33.1 N 0.0 1013.8
17:50 20.2 47 8.5 18.5 35.6 NNW 0.0 1013.8
18:00 20.2 47 8.5 15.2 35.6 N 0.0 1013.9
18:10 20.0 48 8.7 12.9 31.7 NNW 0.0 1014.0
18:20 19.9 50 9.2 14.0 34.2 N 0.0 1013.9
18:30 19.9 50 9.2 14.5 29.5 N 0.0 1013.9
18:40 19.8 50 9.1 15.1 27.0 NNE 0.0 1014.0
18:50 19.7 51 9.3 13.3 28.1 N 0.0 1014.0
19:00 19.7 51 9.3 14.8 27.0 N 0.0 1013.8
19:10 19.6 51 9.2 14.6 27.0 N 0.0 1013.9
19:20 19.6 51 9.2 13.6 27.0 N 0.0 1013.7
19:30 19.6 51 9.2 11.5 27.0 NNE 0.0 1013.4
19:40 19.5 51 9.1 12.3 23.4 N 0.0 1013.0
19:50 19.6 51 9.2 11.2 20.9 N 0.0 1012.8
20:00 19.5 51 9.1 11.4 24.5 N 0.0 1012.7
20:10 19.5 51 9.1 9.7 17.3 N 0.0 1012.9
20:20 19.3 52 9.2 6.8 13.3 NNE 0.0 1013.1
20:30 19.3 52 9.2 10.8 17.3 N 0.0 1013.1
20:40 19.3 53 9.5 11.0 19.4 N 0.0 1013.3
20:50 19.1 53 9.3 8.2 15.8 N 0.0 1013.7
21:00 19.1 54 9.6 5.4 12.2 NNW 0.0 1013.8
21:10 18.9 55 9.7 5.0 11.2 N 0.0 1014.0
21:20 18.7 56 9.8 5.1 9.7 NW 0.0 1014.4
21:30 18.4 57 9.7 5.2 14.8 W 0.0 1015.0
21:40 18.3 59 10.2 6.6 15.8 NW 0.0 1015.2
21:50 18.3 61 10.7 10.5 22.0 NW 0.0 1015.3
22:00 18.1 62 10.7 8.2 22.0 WNW 0.0 1015.8
22:10 17.7 62 10.3 9.7 24.5 NW 0.0 1015.4
22:20 17.5 62 10.1 6.2 15.8 WSW 0.0 1016.5
22:30 17.3 62 10.0 3.5 12.2 WSW 0.0 1015.6
22:40 17.1 63 10.0 3.1 8.6 W 0.0 1016.0
22:50 16.9 65 10.3 1.9 8.6 WSW 0.0 1015.7
23:00 16.6 66 10.2 2.5 7.2 WSW 0.0 1016.2
23:10 16.5 66 10.1 3.3 11.2 WSW 0.0 1015.8
23:20 16.4 66 10.0 3.6 8.6 W 0.0 1016.6
23:30 16.4 66 10.0 2.0 8.6 SSW 0.0 1016.0
23:40 16.3 68 10.4 1.0 3.6 SSW 0.0 1015.7
23:50 16.1 69 10.4 0.2 3.6 SW 0.0 1016.0